Time,TemperatureF,DewpointF,PressureIn,WindDirection,WindDirectionDegrees,WindSpeedMPH,WindSpeedGustMPH,Humidity,HourlyPrecipIn,Conditions,Clouds,dailyrainin,SoftwareType,DateUTC
2013-09-22 00:03:00,66.0,51.3,28.44,East,90,1.0,1.0,59,0.00,,,0.00,meteohub,2013-09-22 05:03:00,
2013-09-22 00:08:00,66.0,51.3,28.44,East,90,1.0,1.0,59,0.00,,,0.00,meteohub,2013-09-22 05:08:00,
2013-09-22 00:13:00,66.2,51.4,28.44,East,90,1.0,1.0,59,0.00,,,0.00,meteohub,2013-09-22 05:13:00,
2013-09-22 00:18:00,66.2,51.4,28.44,East,90,1.0,1.0,59,0.00,,,0.00,meteohub,2013-09-22 05:18:00,
2013-09-22 00:23:00,66.4,51.6,28.44,SE,135,1.0,1.0,59,0.00,,,0.00,meteohub,2013-09-22 05:23:00,
2013-09-22 00:28:00,66.2,51.4,28.43,SE,135,1.0,2.0,59,0.00,,,0.00,meteohub,2013-09-22 05:28:00,
2013-09-22 00:33:00,66.4,51.6,28.43,SE,135,1.0,2.0,59,0.00,,,0.00,meteohub,2013-09-22 05:33:00,
2013-09-22 00:38:00,66.7,51.4,28.44,East,90,1.0,2.0,58,0.00,,,0.00,meteohub,2013-09-22 05:38:00,
2013-09-22 00:43:00,66.7,51.4,28.44,East,90,1.0,1.0,58,0.00,,,0.00,meteohub,2013-09-22 05:43:00,
2013-09-22 00:48:00,66.4,51.6,28.43,East,90,0.0,1.0,59,0.00,,,0.00,meteohub,2013-09-22 05:48:00,
2013-09-22 00:53:00,65.8,51.6,28.43,East,90,1.0,1.0,60,0.00,,,0.00,meteohub,2013-09-22 05:53:00,
2013-09-22 00:58:00,65.3,51.4,28.44,East,90,1.0,1.0,61,0.00,,,0.00,meteohub,2013-09-22 05:58:00,
2013-09-22 01:03:00,65.3,52.0,28.43,East,90,1.0,1.0,62,0.00,,,0.00,meteohub,2013-09-22 06:03:00,
2013-09-22 01:08:00,65.1,51.8,28.44,East,90,1.0,1.0,62,0.00,,,0.00,meteohub,2013-09-22 06:08:00,
2013-09-22 01:13:00,64.9,52.0,28.44,East,90,1.0,1.0,63,0.00,,,0.00,meteohub,2013-09-22 06:13:00,
2013-09-22 01:18:00,64.9,52.0,28.43,East,90,0.0,1.0,63,0.00,,,0.00,meteohub,2013-09-22 06:18:00,
2013-09-22 01:23:00,64.6,52.2,28.43,East,90,1.0,1.0,64,0.00,,,0.00,meteohub,2013-09-22 06:23:00,
2013-09-22 01:28:00,64.6,52.2,28.43,East,90,1.0,1.0,64,0.00,,,0.00,meteohub,2013-09-22 06:28:00,
2013-09-22 01:33:00,64.4,52.3,28.44,East,90,0.0,1.0,65,0.00,,,0.00,meteohub,2013-09-22 06:33:00,
2013-09-22 01:38:00,63.9,52.3,28.44,East,90,0.0,1.0,66,0.00,,,0.00,meteohub,2013-09-22 06:38:00,
2013-09-22 01:43:00,63.5,52.0,28.43,East,90,0.0,1.0,66,0.00,,,0.00,meteohub,2013-09-22 06:43:00,
2013-09-22 01:49:00,63.9,52.3,28.43,East,90,1.0,1.0,66,0.00,,,0.00,meteohub,2013-09-22 06:49:00,
2013-09-22 01:54:00,63.9,52.3,28.43,East,90,1.0,1.0,66,0.00,,,0.00,meteohub,2013-09-22 06:54:00,
2013-09-22 01:59:00,63.5,52.0,28.44,East,90,1.0,1.0,66,0.00,,,0.00,meteohub,2013-09-22 06:59:00,
2013-09-22 02:04:00,63.5,52.0,28.44,East,90,0.0,1.0,66,0.00,,,0.00,meteohub,2013-09-22 07:04:00,
2013-09-22 02:09:00,63.1,52.0,28.44,SE,135,0.0,1.0,67,0.00,,,0.00,meteohub,2013-09-22 07:09:00,
2013-09-22 02:14:00,63.0,52.2,28.44,East,90,0.0,1.0,68,0.00,,,0.00,meteohub,2013-09-22 07:14:00,
2013-09-22 02:19:00,62.6,52.0,28.44,East,90,0.0,1.0,68,0.00,,,0.00,meteohub,2013-09-22 07:19:00,
2013-09-22 02:24:00,62.2,52.0,28.44,East,90,1.0,1.0,69,0.00,,,0.00,meteohub,2013-09-22 07:24:00,
2013-09-22 02:29:00,62.1,52.2,28.44,East,90,1.0,1.0,70,0.00,,,0.00,meteohub,2013-09-22 07:29:00,
2013-09-22 02:34:00,61.9,52.0,28.44,East,90,1.0,1.0,70,0.00,,,0.00,meteohub,2013-09-22 07:34:00,
2013-09-22 02:39:00,62.4,52.5,28.44,East,90,1.0,1.0,70,0.00,,,0.00,meteohub,2013-09-22 07:39:00,
2013-09-22 02:44:00,62.8,52.0,28.44,East,90,1.0,1.0,68,0.00,,,0.00,meteohub,2013-09-22 07:44:00,
2013-09-22 02:49:00,62.8,52.0,28.44,East,90,1.0,1.0,68,0.00,,,0.00,meteohub,2013-09-22 07:49:00,
2013-09-22 02:54:00,62.6,52.0,28.44,East,90,1.0,1.0,68,0.00,,,0.00,meteohub,2013-09-22 07:54:00,
2013-09-22 02:59:00,62.6,52.0,28.44,SE,135,1.0,1.0,68,0.00,,,0.00,meteohub,2013-09-22 07:59:00,
2013-09-22 03:04:00,62.6,52.0,28.44,East,90,0.0,1.0,68,0.00,,,0.00,meteohub,2013-09-22 08:04:00,
2013-09-22 03:09:00,62.4,51.8,28.44,SE,135,1.0,1.0,68,0.00,,,0.00,meteohub,2013-09-22 08:09:00,
2013-09-22 03:14:00,62.2,51.6,28.43,East,90,0.0,1.0,68,0.00,,,0.00,meteohub,2013-09-22 08:14:00,
2013-09-22 03:19:00,61.9,51.6,28.44,East,90,0.0,1.0,69,0.00,,,0.00,meteohub,2013-09-22 08:19:00,
2013-09-22 03:24:00,61.5,51.6,28.44,NE,45,0.0,1.0,70,0.00,,,0.00,meteohub,2013-09-22 08:24:00,
2013-09-22 03:29:00,61.2,51.6,28.44,East,90,0.0,1.0,71,0.00,,,0.00,meteohub,2013-09-22 08:29:00,
2013-09-22 03:34:00,60.8,51.8,28.43,SE,135,1.0,1.0,72,0.00,,,0.00,meteohub,2013-09-22 08:34:00,
2013-09-22 03:39:00,60.8,51.8,28.44,East,90,0.0,1.0,72,0.00,,,0.00,meteohub,2013-09-22 08:39:00,
2013-09-22 03:44:00,60.8,51.8,28.43,SE,135,0.0,1.0,72,0.00,,,0.00,meteohub,2013-09-22 08:44:00,
2013-09-22 03:49:00,60.6,51.6,28.43,East,90,0.0,1.0,72,0.00,,,0.00,meteohub,2013-09-22 08:49:00,
2013-09-22 03:54:00,60.6,52.0,28.43,East,90,0.0,1.0,73,0.00,,,0.00,meteohub,2013-09-22 08:54:00,
2013-09-22 03:59:00,60.1,51.8,28.43,East,90,0.0,1.0,74,0.00,,,0.00,meteohub,2013-09-22 08:59:00,
2013-09-22 04:04:00,60.3,52.0,28.43,East,90,1.0,1.0,74,0.00,,,0.00,meteohub,2013-09-22 09:04:00,
2013-09-22 04:09:00,60.1,52.2,28.43,NE,45,1.0,1.0,75,0.00,,,0.00,meteohub,2013-09-22 09:09:00,
2013-09-22 04:14:00,59.7,51.8,28.43,East,90,0.0,1.0,75,0.00,,,0.00,meteohub,2013-09-22 09:14:00,
2013-09-22 04:19:00,59.5,52.0,28.42,East,90,0.0,1.0,76,0.00,,,0.00,meteohub,2013-09-22 09:19:00,
2013-09-22 04:24:00,59.2,51.6,28.43,East,90,1.0,1.0,76,0.00,,,0.00,meteohub,2013-09-22 09:24:00,
2013-09-22 04:29:00,59.4,52.2,28.42,NE,45,0.0,1.0,77,0.00,,,0.00,meteohub,2013-09-22 09:29:00,
2013-09-22 04:34:00,59.2,52.0,28.42,East,90,1.0,1.0,77,0.00,,,0.00,meteohub,2013-09-22 09:34:00,
2013-09-22 04:39:00,59.2,52.0,28.42,East,90,0.0,1.0,77,0.00,,,0.00,meteohub,2013-09-22 09:39:00,
2013-09-22 04:44:00,59.0,51.8,28.42,NE,45,0.0,1.0,77,0.00,,,0.00,meteohub,2013-09-22 09:44:00,
2013-09-22 04:49:00,59.0,51.8,28.42,East,90,1.0,1.0,77,0.00,,,0.00,meteohub,2013-09-22 09:49:00,
2013-09-22 04:54:00,59.4,52.2,28.42,SE,135,1.0,1.0,77,0.00,,,0.00,meteohub,2013-09-22 09:54:00,
2013-09-22 04:59:00,59.2,51.6,28.42,East,90,1.0,1.0,76,0.00,,,0.00,meteohub,2013-09-22 09:59:00,
2013-09-22 05:04:00,59.2,51.6,28.43,East,90,0.0,1.0,76,0.00,,,0.00,meteohub,2013-09-22 10:04:00,
2013-09-22 05:09:00,59.2,51.6,28.43,East,90,1.0,1.0,76,0.00,,,0.00,meteohub,2013-09-22 10:09:00,
2013-09-22 05:14:00,59.4,51.4,28.43,East,90,1.0,1.0,75,0.00,,,0.00,meteohub,2013-09-22 10:14:00,
2013-09-22 05:19:00,59.4,51.4,28.42,East,90,0.0,1.0,75,0.00,,,0.00,meteohub,2013-09-22 10:19:00,
2013-09-22 05:24:00,59.2,51.6,28.42,East,90,0.0,1.0,76,0.00,,,0.00,meteohub,2013-09-22 10:24:00,
2013-09-22 05:29:00,59.0,51.4,28.42,NE,45,0.0,1.0,76,0.00,,,0.00,meteohub,2013-09-22 10:29:00,
2013-09-22 05:34:00,58.8,51.6,28.42,North,0,0.0,1.0,77,0.00,,,0.00,meteohub,2013-09-22 10:34:00,
2013-09-22 05:40:00,58.6,51.4,28.42,East,90,0.0,1.0,77,0.00,,,0.00,meteohub,2013-09-22 10:40:00,
2013-09-22 05:45:00,58.5,51.3,28.42,NE,45,1.0,1.0,77,0.00,,,0.00,meteohub,2013-09-22 10:45:00,
2013-09-22 05:50:00,58.3,51.1,28.42,NE,45,1.0,1.0,77,0.00,,,0.00,meteohub,2013-09-22 10:50:00,
2013-09-22 05:54:00,58.3,51.4,28.42,NE,45,0.0,1.0,78,0.00,,,0.00,meteohub,2013-09-22 10:54:00,
2013-09-22 06:02:00,57.9,51.1,28.42,NE,45,1.0,1.0,78,0.00,,,0.00,meteohub,2013-09-22 11:02:00,
2013-09-22 06:07:00,57.9,51.1,28.42,NE,45,0.0,1.0,78,0.00,,,0.00,meteohub,2013-09-22 11:07:00,
2013-09-22 06:12:00,57.7,50.9,28.42,East,90,0.0,1.0,78,0.00,,,0.00,meteohub,2013-09-22 11:12:00,
2013-09-22 06:17:00,57.7,51.3,28.42,East,90,0.0,1.0,79,0.00,,,0.00,meteohub,2013-09-22 11:17:00,
2013-09-22 06:22:00,57.4,50.9,28.43,East,90,0.0,1.0,79,0.00,,,0.00,meteohub,2013-09-22 11:22:00,
2013-09-22 06:27:00,57.6,51.4,28.42,NE,45,0.0,1.0,80,0.00,,,0.00,meteohub,2013-09-22 11:27:00,
2013-09-22 06:32:00,57.4,51.3,28.43,East,90,1.0,1.0,80,0.00,,,0.00,meteohub,2013-09-22 11:32:00,
2013-09-22 06:37:00,57.4,51.3,28.42,East,90,1.0,1.0,80,0.00,,,0.00,meteohub,2013-09-22 11:37:00,
2013-09-22 06:42:00,57.4,51.3,28.42,East,90,1.0,1.0,80,0.00,,,0.00,meteohub,2013-09-22 11:42:00,
2013-09-22 06:47:00,57.4,50.9,28.43,East,90,1.0,1.0,79,0.00,,,0.00,meteohub,2013-09-22 11:47:00,
2013-09-22 06:52:00,57.4,50.9,28.43,East,90,0.0,1.0,79,0.00,,,0.00,meteohub,2013-09-22 11:52:00,
2013-09-22 06:57:00,57.4,50.9,28.43,NE,45,1.0,1.0,79,0.00,,,0.00,meteohub,2013-09-22 11:57:00,
2013-09-22 07:02:00,57.2,50.7,28.43,East,90,0.0,1.0,79,0.00,,,0.00,meteohub,2013-09-22 12:02:00,
2013-09-22 07:07:00,57.0,50.5,28.43,SE,135,1.0,1.0,79,0.00,,,0.00,meteohub,2013-09-22 12:07:00,
2013-09-22 07:12:00,57.0,50.9,28.43,East,90,1.0,1.0,80,0.00,,,0.00,meteohub,2013-09-22 12:12:00,
2013-09-22 07:17:00,57.0,50.9,28.44,NE,45,0.0,1.0,80,0.00,,,0.00,meteohub,2013-09-22 12:17:00,
2013-09-22 07:22:00,57.0,50.9,28.44,NE,45,1.0,1.0,80,0.00,,,0.00,meteohub,2013-09-22 12:22:00,
2013-09-22 07:27:00,56.8,50.7,28.44,East,90,1.0,1.0,80,0.00,,,0.00,meteohub,2013-09-22 12:27:00,
2013-09-22 07:32:00,57.0,50.9,28.44,East,90,1.0,1.0,80,0.00,,,0.00,meteohub,2013-09-22 12:32:00,
2013-09-22 07:37:00,57.2,50.7,28.44,SE,135,1.0,1.0,79,0.00,,,0.00,meteohub,2013-09-22 12:37:00,
2013-09-22 07:42:00,57.4,50.9,28.44,East,90,1.0,1.0,79,0.00,,,0.00,meteohub,2013-09-22 12:42:00,
2013-09-22 07:47:00,57.6,50.7,28.44,SE,135,0.0,1.0,78,0.00,,,0.00,meteohub,2013-09-22 12:47:00,
2013-09-22 07:52:00,57.7,50.9,28.44,East,90,0.0,1.0,78,0.00,,,0.00,meteohub,2013-09-22 12:52:00,
2013-09-22 07:57:00,57.9,51.1,28.44,East,90,1.0,1.0,78,0.00,,,0.00,meteohub,2013-09-22 12:57:00,
2013-09-22 08:02:00,58.1,50.9,28.45,East,90,1.0,1.0,77,0.00,,,0.00,meteohub,2013-09-22 13:02:00,
2013-09-22 08:07:00,58.5,51.3,28.45,NE,45,1.0,1.0,77,0.00,,,0.00,meteohub,2013-09-22 13:07:00,
2013-09-22 08:12:00,58.8,51.3,28.45,SE,135,1.0,1.0,76,0.00,,,0.00,meteohub,2013-09-22 13:12:00,
2013-09-22 08:17:00,59.4,51.4,28.45,NE,45,1.0,1.0,75,0.00,,,0.00,meteohub,2013-09-22 13:17:00,
2013-09-22 08:22:00,59.5,51.6,28.45,NE,45,1.0,1.0,75,0.00,,,0.00,meteohub,2013-09-22 13:22:00,
2013-09-22 08:27:00,59.7,51.4,28.45,SE,135,1.0,1.0,74,0.00,,,0.00,meteohub,2013-09-22 13:27:00,
2013-09-22 08:32:00,60.6,52.0,28.45,East,90,0.0,1.0,73,0.00,,,0.00,meteohub,2013-09-22 13:32:00,
2013-09-22 08:37:00,61.0,52.0,28.45,East,90,1.0,3.0,72,0.00,,,0.00,meteohub,2013-09-22 13:37:00,
2013-09-22 08:42:00,61.5,51.6,28.45,East,90,1.0,3.0,70,0.00,,,0.00,meteohub,2013-09-22 13:42:00,
2013-09-22 08:47:00,61.9,51.6,28.45,East,90,1.0,3.0,69,0.00,,,0.00,meteohub,2013-09-22 13:47:00,
2013-09-22 08:52:00,63.1,51.6,28.45,East,90,1.0,1.0,66,0.00,,,0.00,meteohub,2013-09-22 13:52:00,
2013-09-22 08:57:00,64.2,51.8,28.46,East,90,2.0,4.0,64,0.00,,,0.00,meteohub,2013-09-22 13:57:00,
2013-09-22 09:02:00,64.9,52.5,28.46,East,90,1.0,4.0,64,0.00,,,0.00,meteohub,2013-09-22 14:02:00,
2013-09-22 09:07:00,65.3,52.0,28.46,East,90,1.0,4.0,62,0.00,,,0.00,meteohub,2013-09-22 14:07:00,
2013-09-22 09:12:00,65.7,51.8,28.46,East,90,7.0,7.0,61,0.00,,,0.00,meteohub,2013-09-22 14:12:00,
2013-09-22 09:17:00,65.8,51.6,28.46,East,90,1.0,8.0,60,0.00,,,0.00,meteohub,2013-09-22 14:17:00,
2013-09-22 09:22:00,66.7,52.0,28.45,SE,135,5.0,8.0,59,0.00,,,0.00,meteohub,2013-09-22 14:22:00,
2013-09-22 09:27:00,67.3,52.5,28.45,East,90,1.0,8.0,59,0.00,,,0.00,meteohub,2013-09-22 14:27:00,
2013-09-22 09:32:00,68.2,51.8,28.46,East,90,1.0,7.0,56,0.00,,,0.00,meteohub,2013-09-22 14:32:00,
2013-09-22 09:37:00,68.5,51.3,28.46,East,90,1.0,6.0,54,0.00,,,0.00,meteohub,2013-09-22 14:37:00,
2013-09-22 09:42:00,68.9,51.6,28.46,South,180,1.0,5.0,54,0.00,,,0.00,meteohub,2013-09-22 14:42:00,
2013-09-22 09:47:00,69.4,52.2,28.46,East,90,1.0,5.0,54,0.00,,,0.00,meteohub,2013-09-22 14:47:00,
2013-09-22 09:52:00,70.0,51.6,28.46,NE,45,8.0,8.0,52,0.00,,,0.00,meteohub,2013-09-22 14:52:00,
2013-09-22 09:57:00,70.5,52.5,28.46,SE,135,4.0,9.0,53,0.00,,,0.00,meteohub,2013-09-22 14:57:00,
2013-09-22 10:02:00,71.1,52.5,28.46,NW,315,3.0,9.0,52,0.00,,,0.00,meteohub,2013-09-22 15:02:00,
2013-09-22 10:07:00,71.1,51.4,28.46,East,90,1.0,8.0,50,0.00,,,0.00,meteohub,2013-09-22 15:07:00,
2013-09-22 10:12:00,71.6,51.4,28.46,SE,135,3.0,8.0,49,0.00,,,0.00,meteohub,2013-09-22 15:12:00,
2013-09-22 10:17:00,72.5,50.5,28.46,NE,45,1.0,8.0,46,0.00,,,0.00,meteohub,2013-09-22 15:17:00,
2013-09-22 10:22:00,73.0,50.4,28.46,East,90,3.0,7.0,45,0.00,,,0.00,meteohub,2013-09-22 15:22:00,
2013-09-22 10:27:00,73.6,50.9,28.46,East,90,6.0,8.0,45,0.00,,,0.00,meteohub,2013-09-22 15:27:00,
2013-09-22 10:32:00,73.9,50.0,28.46,East,90,1.0,8.0,43,0.00,,,0.00,meteohub,2013-09-22 15:32:00,
2013-09-22 10:37:00,74.5,49.8,28.46,NE,45,1.0,8.0,42,0.00,,,0.00,meteohub,2013-09-22 15:37:00,
2013-09-22 10:42:00,75.6,50.2,28.45,East,90,6.0,8.0,41,0.00,,,0.00,meteohub,2013-09-22 15:42:00,
2013-09-22 10:47:00,76.1,50.0,28.45,NW,315,4.0,8.0,40,0.00,,,0.00,meteohub,2013-09-22 15:47:00,
2013-09-22 10:52:00,76.6,49.1,28.46,North,0,4.0,8.0,38,0.00,,,0.00,meteohub,2013-09-22 15:52:00,
2013-09-22 10:57:00,77.0,48.7,28.45,East,90,4.0,8.0,37,0.00,,,0.00,meteohub,2013-09-22 15:57:00,
2013-09-22 11:02:00,77.2,47.5,28.45,East,90,1.0,8.0,35,0.00,,,0.00,meteohub,2013-09-22 16:02:00,
2013-09-22 11:07:00,77.5,46.9,28.45,East,90,8.0,8.0,34,0.00,,,0.00,meteohub,2013-09-22 16:07:00,
2013-09-22 11:12:00,78.3,46.8,28.45,East,90,1.0,8.0,33,0.00,,,0.00,meteohub,2013-09-22 16:12:00,
2013-09-22 11:17:00,78.6,46.2,28.45,South,180,5.0,8.0,32,0.00,,,0.00,meteohub,2013-09-22 16:17:00,
2013-09-22 11:22:00,78.8,48.0,28.45,East,90,2.0,10.0,34,0.00,,,0.00,meteohub,2013-09-22 16:22:00,
2013-09-22 11:27:00,78.8,46.4,28.45,East,90,5.0,10.0,32,0.00,,,0.00,meteohub,2013-09-22 16:27:00,
2013-09-22 11:32:00,79.3,46.0,28.45,SE,135,4.0,10.0,31,0.00,,,0.00,meteohub,2013-09-22 16:32:00,
2013-09-22 11:37:00,79.5,45.3,28.45,SE,135,8.0,8.0,30,0.00,,,0.00,meteohub,2013-09-22 16:37:00,
2013-09-22 11:42:00,79.7,44.6,28.45,SE,135,7.0,8.0,29,0.00,,,0.00,meteohub,2013-09-22 16:42:00,
2013-09-22 11:47:00,79.7,45.5,28.45,East,90,4.0,8.0,30,0.00,,,0.00,meteohub,2013-09-22 16:47:00,
2013-09-22 11:52:00,80.4,44.2,28.44,SW,225,4.0,10.0,28,0.00,,,0.00,meteohub,2013-09-22 16:52:00,
2013-09-22 11:57:00,80.6,45.3,28.44,SE,135,8.0,10.0,29,0.00,,,0.00,meteohub,2013-09-22 16:57:00,
2013-09-22 12:02:00,80.6,47.1,28.44,WSW,248,1.0,8.0,31,0.00,,,0.00,meteohub,2013-09-22 17:02:00,
2013-09-22 12:07:00,81.7,48.0,28.44,East,90,1.0,8.0,31,0.00,,,0.00,meteohub,2013-09-22 17:07:00,
2013-09-22 12:12:00,82.2,45.9,28.44,SE,135,7.0,8.0,28,0.00,,,0.00,meteohub,2013-09-22 17:12:00,
2013-09-22 12:17:00,81.9,44.6,28.44,East,90,8.0,8.0,27,0.00,,,0.00,meteohub,2013-09-22 17:17:00,
2013-09-22 12:22:00,81.9,46.4,28.43,South,180,1.0,8.0,29,0.00,,,0.00,meteohub,2013-09-22 17:22:00,
2013-09-22 12:27:00,81.9,44.6,28.43,South,180,8.0,8.0,27,0.00,,,0.00,meteohub,2013-09-22 17:27:00,
2013-09-22 12:32:00,82.2,45.0,28.43,East,90,4.0,8.0,27,0.00,,,0.00,meteohub,2013-09-22 17:32:00,
2013-09-22 12:37:00,82.6,46.2,28.42,South,180,4.0,8.0,28,0.00,,,0.00,meteohub,2013-09-22 17:37:00,
2013-09-22 12:42:00,82.9,45.5,28.42,NE,45,1.0,8.0,27,0.00,,,0.00,meteohub,2013-09-22 17:42:00,
2013-09-22 12:47:00,82.8,43.3,28.42,South,180,10.0,10.0,25,0.00,,,0.00,meteohub,2013-09-22 17:47:00,
2013-09-22 12:52:00,83.1,45.7,28.42,West,270,4.0,10.0,27,0.00,,,0.00,meteohub,2013-09-22 17:52:00,
2013-09-22 12:57:00,83.1,43.7,28.42,South,180,7.0,10.0,25,0.00,,,0.00,meteohub,2013-09-22 17:57:00,
2013-09-22 13:02:00,82.8,44.4,28.42,SE,135,2.0,10.0,26,0.00,,,0.00,meteohub,2013-09-22 18:02:00,
2013-09-22 13:07:00,83.3,45.9,28.42,East,90,1.0,10.0,27,0.00,,,0.00,meteohub,2013-09-22 18:07:00,
2013-09-22 13:12:00,83.5,43.9,28.41,East,90,5.0,10.0,25,0.00,,,0.00,meteohub,2013-09-22 18:12:00,
2013-09-22 13:17:00,83.7,40.8,28.41,South,180,11.0,11.0,22,0.00,,,0.00,meteohub,2013-09-22 18:17:00,
2013-09-22 13:22:00,82.4,44.1,28.40,SE,135,2.0,11.0,26,0.00,,,0.00,meteohub,2013-09-22 18:22:00,
2013-09-22 13:27:00,83.1,42.6,28.40,South,180,10.0,11.0,24,0.00,,,0.00,meteohub,2013-09-22 18:27:00,
2013-09-22 13:32:00,83.5,43.0,28.40,SE,135,7.0,12.0,24,0.00,,,0.00,meteohub,2013-09-22 18:32:00,
2013-09-22 13:37:00,83.7,41.9,28.40,SW,225,9.0,12.0,23,0.00,,,0.00,meteohub,2013-09-22 18:37:00,
2013-09-22 13:42:00,83.3,43.9,28.40,NE,45,1.0,12.0,25,0.00,,,0.00,meteohub,2013-09-22 18:42:00,
2013-09-22 13:47:00,84.2,42.4,28.40,East,90,12.0,12.0,23,0.00,,,0.00,meteohub,2013-09-22 18:47:00,
2013-09-22 13:52:00,84.4,41.4,28.39,SE,135,9.0,12.0,22,0.00,,,0.00,meteohub,2013-09-22 18:52:00,
2013-09-22 13:59:00,85.1,43.2,28.40,SW,225,5.0,12.0,23,0.00,,,0.00,meteohub,2013-09-22 18:59:00,
2013-09-22 14:04:00,85.8,41.4,28.39,South,180,5.0,12.0,21,0.00,,,0.00,meteohub,2013-09-22 19:04:00,
2013-09-22 14:09:00,85.1,39.6,28.38,SE,135,6.0,10.0,20,0.00,,,0.00,meteohub,2013-09-22 19:09:00,
2013-09-22 14:14:00,85.3,43.3,28.38,East,90,4.0,10.0,23,0.00,,,0.00,meteohub,2013-09-22 19:14:00,
2013-09-22 14:19:00,85.6,39.9,28.38,South,180,8.0,10.0,20,0.00,,,0.00,meteohub,2013-09-22 19:19:00,
2013-09-22 14:24:00,85.1,36.9,28.38,South,180,11.0,11.0,18,0.00,,,0.00,meteohub,2013-09-22 19:24:00,
2013-09-22 14:29:00,84.9,41.9,28.38,SW,225,6.0,9.0,22,0.00,,,0.00,meteohub,2013-09-22 19:29:00,
2013-09-22 14:34:00,85.1,38.1,28.38,SSW,203,11.0,11.0,19,0.00,,,0.00,meteohub,2013-09-22 19:34:00,
2013-09-22 14:39:00,86.0,40.3,28.37,South,180,10.0,11.0,20,0.00,,,0.00,meteohub,2013-09-22 19:39:00,
2013-09-22 14:44:00,85.5,38.5,28.37,East,90,3.0,11.0,19,0.00,,,0.00,meteohub,2013-09-22 19:44:00,
2013-09-22 14:49:00,86.2,41.7,28.37,South,180,1.0,11.0,21,0.00,,,0.00,meteohub,2013-09-22 19:49:00,
2013-09-22 14:54:00,86.0,40.3,28.36,NE,45,6.0,10.0,20,0.00,,,0.00,meteohub,2013-09-22 19:54:00,
2013-09-22 14:59:00,86.2,40.5,28.36,NE,45,8.0,10.0,20,0.00,,,0.00,meteohub,2013-09-22 19:59:00,
2013-09-22 15:04:00,86.2,41.7,28.36,SE,135,6.0,10.0,21,0.00,,,0.00,meteohub,2013-09-22 20:04:00,
2013-09-22 15:09:00,86.4,40.6,28.36,SE,135,1.0,10.0,20,0.00,,,0.00,meteohub,2013-09-22 20:09:00,
2013-09-22 15:14:00,86.4,39.2,28.36,South,180,11.0,11.0,19,0.00,,,0.00,meteohub,2013-09-22 20:14:00,
2013-09-22 15:19:00,86.4,40.6,28.35,SE,135,4.0,11.0,20,0.00,,,0.00,meteohub,2013-09-22 20:19:00,
2013-09-22 15:24:00,86.7,40.8,28.35,South,180,5.0,11.0,20,0.00,,,0.00,meteohub,2013-09-22 20:24:00,
2013-09-22 15:29:00,87.1,41.2,28.35,East,90,1.0,11.0,20,0.00,,,0.00,meteohub,2013-09-22 20:29:00,
2013-09-22 15:34:00,86.7,42.1,28.35,NE,45,3.0,7.0,21,0.00,,,0.00,meteohub,2013-09-22 20:34:00,
2013-09-22 15:39:00,87.3,41.4,28.35,South,180,4.0,13.0,20,0.00,,,0.00,meteohub,2013-09-22 20:39:00,
2013-09-22 15:44:00,86.2,39.0,28.34,SE,135,7.0,13.0,19,0.00,,,0.00,meteohub,2013-09-22 20:44:00,
2013-09-22 15:49:00,86.5,41.9,28.34,South,180,11.0,13.0,21,0.00,,,0.00,meteohub,2013-09-22 20:49:00,
2013-09-22 15:54:00,86.9,41.0,28.33,South,180,8.0,13.0,20,0.00,,,0.00,meteohub,2013-09-22 20:54:00,
2013-09-22 15:59:00,86.4,40.6,28.34,NE,45,11.0,13.0,20,0.00,,,0.00,meteohub,2013-09-22 20:59:00,
2013-09-22 16:05:00,85.6,42.4,28.33,SW,225,4.0,12.0,22,0.00,,,0.00,meteohub,2013-09-22 21:05:00,
2013-09-22 16:10:00,86.5,41.9,28.33,SE,135,8.0,12.0,21,0.00,,,0.00,meteohub,2013-09-22 21:10:00,
2013-09-22 16:15:00,87.1,42.4,28.32,SE,135,2.0,12.0,21,0.00,,,0.00,meteohub,2013-09-22 21:15:00,
2013-09-22 16:20:00,87.4,41.4,28.32,South,180,10.0,11.0,20,0.00,,,0.00,meteohub,2013-09-22 21:20:00,
2013-09-22 16:25:00,87.1,41.2,28.32,SSE,158,8.0,9.0,20,0.00,,,0.00,meteohub,2013-09-22 21:25:00,
2013-09-22 16:30:00,86.5,41.9,28.32,East,90,4.0,13.0,21,0.00,,,0.00,meteohub,2013-09-22 21:30:00,
2013-09-22 16:35:00,87.1,42.4,28.32,East,90,9.0,13.0,21,0.00,,,0.00,meteohub,2013-09-22 21:35:00,
2013-09-22 16:40:00,86.7,40.8,28.31,East,90,8.0,13.0,20,0.00,,,0.00,meteohub,2013-09-22 21:40:00,
2013-09-22 16:45:00,86.5,41.9,28.32,East,90,1.0,11.0,21,0.00,,,0.00,meteohub,2013-09-22 21:45:00,
2013-09-22 16:50:00,86.2,40.5,28.31,SW,225,12.0,12.0,20,0.00,,,0.00,meteohub,2013-09-22 21:50:00,
2013-09-22 16:55:00,86.5,40.6,28.31,East,90,12.0,12.0,20,0.00,,,0.00,meteohub,2013-09-22 21:55:00,
2013-09-22 17:00:00,86.0,42.8,28.31,SE,135,4.0,12.0,22,0.00,,,0.00,meteohub,2013-09-22 22:00:00,
2013-09-22 17:05:00,86.4,43.0,28.31,South,180,6.0,12.0,22,0.00,,,0.00,meteohub,2013-09-22 22:05:00,
2013-09-22 17:10:00,86.7,42.1,28.31,SSE,158,2.0,12.0,21,0.00,,,0.00,meteohub,2013-09-22 22:10:00,
2013-09-22 17:15:00,86.7,40.8,28.31,South,180,11.0,11.0,20,0.00,,,0.00,meteohub,2013-09-22 22:15:00,
2013-09-22 17:20:00,86.5,41.9,28.30,SE,135,8.0,11.0,21,0.00,,,0.00,meteohub,2013-09-22 22:20:00,
2013-09-22 17:25:00,86.2,41.7,28.30,South,180,10.0,11.0,21,0.00,,,0.00,meteohub,2013-09-22 22:25:00,
2013-09-22 17:30:00,86.2,41.7,28.30,East,90,6.0,11.0,21,0.00,,,0.00,meteohub,2013-09-22 22:30:00,
2013-09-22 17:35:00,85.8,42.6,28.30,East,90,4.0,12.0,22,0.00,,,0.00,meteohub,2013-09-22 22:35:00,
2013-09-22 17:40:00,86.2,41.7,28.30,SE,135,6.0,12.0,21,0.00,,,0.00,meteohub,2013-09-22 22:40:00,
2013-09-22 17:46:00,86.0,41.5,28.30,East,90,10.0,12.0,21,0.00,,,0.00,meteohub,2013-09-22 22:46:00,
2013-09-22 17:51:00,85.6,42.4,28.30,East,90,4.0,10.0,22,0.00,,,0.00,meteohub,2013-09-22 22:51:00,
2013-09-22 17:56:00,85.3,42.1,28.30,East,90,1.0,11.0,22,0.00,,,0.00,meteohub,2013-09-22 22:56:00,
2013-09-22 18:01:00,85.1,40.8,28.30,East,90,4.0,12.0,21,0.00,,,0.00,meteohub,2013-09-22 23:01:00,
2013-09-22 18:06:00,85.1,39.6,28.30,SE,135,9.0,12.0,20,0.00,,,0.00,meteohub,2013-09-22 23:06:00,
2013-09-22 18:11:00,84.6,40.3,28.30,SE,135,7.0,9.0,21,0.00,,,0.00,meteohub,2013-09-22 23:11:00,
2013-09-22 18:16:00,84.6,41.5,28.30,East,90,7.0,10.0,22,0.00,,,0.00,meteohub,2013-09-22 23:16:00,
2013-09-22 18:21:00,84.4,41.4,28.30,SE,135,8.0,11.0,22,0.00,,,0.00,meteohub,2013-09-22 23:21:00,
2013-09-22 18:26:00,84.4,41.4,28.30,SE,135,6.0,11.0,22,0.00,,,0.00,meteohub,2013-09-22 23:26:00,
2013-09-22 18:31:00,84.2,42.4,28.30,SE,135,2.0,10.0,23,0.00,,,0.00,meteohub,2013-09-22 23:31:00,
2013-09-22 18:36:00,84.0,42.3,28.30,ESE,113,7.0,8.0,23,0.00,,,0.00,meteohub,2013-09-22 23:36:00,
2013-09-22 18:41:00,83.7,43.0,28.30,SE,135,1.0,10.0,24,0.00,,,0.00,meteohub,2013-09-22 23:41:00,
2013-09-22 18:47:00,83.7,43.0,28.30,SE,135,1.0,10.0,24,0.00,,,0.00,meteohub,2013-09-22 23:47:00,
2013-09-22 18:52:00,83.3,41.7,28.30,South,180,8.0,10.0,23,0.00,,,0.00,meteohub,2013-09-22 23:52:00,
2013-09-22 18:57:00,82.9,42.4,28.30,East,90,4.0,11.0,24,0.00,,,0.00,meteohub,2013-09-22 23:57:00,
2013-09-22 19:02:00,82.6,42.1,28.30,SE,135,6.0,11.0,24,0.00,,,0.00,meteohub,2013-09-23 00:02:00,
2013-09-22 19:07:00,82.2,40.8,28.30,South,180,7.0,11.0,23,0.00,,,0.00,meteohub,2013-09-23 00:07:00,
2013-09-22 19:12:00,81.9,41.5,28.30,East,90,2.0,11.0,24,0.00,,,0.00,meteohub,2013-09-23 00:12:00,
2013-09-22 19:17:00,81.3,43.2,28.30,East,90,1.0,11.0,26,0.00,,,0.00,meteohub,2013-09-23 00:17:00,
2013-09-22 19:22:00,80.8,43.7,28.30,SE,135,6.0,7.0,27,0.00,,,0.00,meteohub,2013-09-23 00:22:00,
2013-09-22 19:27:00,80.1,43.0,28.30,East,90,4.0,8.0,27,0.00,,,0.00,meteohub,2013-09-23 00:27:00,
2013-09-22 19:32:00,79.7,43.7,28.30,SE,135,6.0,8.0,28,0.00,,,0.00,meteohub,2013-09-23 00:32:00,
2013-09-22 19:37:00,78.8,43.9,28.30,East,90,5.0,8.0,29,0.00,,,0.00,meteohub,2013-09-23 00:37:00,
2013-09-22 19:42:00,78.4,44.4,28.30,East,90,6.0,8.0,30,0.00,,,0.00,meteohub,2013-09-23 00:42:00,
2013-09-22 19:47:00,77.9,44.1,28.30,SE,135,7.0,8.0,30,0.00,,,0.00,meteohub,2013-09-23 00:47:00,
2013-09-22 19:52:00,77.5,44.6,28.30,East,90,2.0,7.0,31,0.00,,,0.00,meteohub,2013-09-23 00:52:00,
2013-09-22 19:57:00,77.2,45.0,28.30,South,180,4.0,7.0,32,0.00,,,0.00,meteohub,2013-09-23 00:57:00,
2013-09-22 20:02:00,76.6,45.3,28.30,SE,135,4.0,7.0,33,0.00,,,0.00,meteohub,2013-09-23 01:02:00,
2013-09-22 20:07:00,76.5,46.0,28.30,East,90,2.0,8.0,34,0.00,,,0.00,meteohub,2013-09-23 01:07:00,
2013-09-22 20:12:00,76.3,46.6,28.30,East,90,1.0,8.0,35,0.00,,,0.00,meteohub,2013-09-23 01:12:00,
2013-09-22 20:17:00,75.9,46.2,28.30,SE,135,8.0,8.0,35,0.00,,,0.00,meteohub,2013-09-23 01:17:00,
2013-09-22 20:22:00,75.6,46.8,28.31,SE,135,1.0,10.0,36,0.00,,,0.00,meteohub,2013-09-23 01:22:00,
2013-09-22 20:27:00,75.2,46.4,28.31,SE,135,3.0,10.0,36,0.00,,,0.00,meteohub,2013-09-23 01:27:00,
2013-09-22 20:32:00,74.8,46.8,28.31,East,90,3.0,10.0,37,0.00,,,0.00,meteohub,2013-09-23 01:32:00,
2013-09-22 20:37:00,74.5,47.1,28.31,NE,45,1.0,7.0,38,0.00,,,0.00,meteohub,2013-09-23 01:37:00,
2013-09-22 20:42:00,74.3,47.1,28.31,North,0,1.0,6.0,38,0.00,,,0.00,meteohub,2013-09-23 01:42:00,
2013-09-22 20:47:00,74.1,46.9,28.31,East,90,2.0,7.0,38,0.00,,,0.00,meteohub,2013-09-23 01:47:00,
2013-09-22 20:52:00,74.3,46.4,28.32,SE,135,4.0,7.0,37,0.00,,,0.00,meteohub,2013-09-23 01:52:00,
2013-09-22 20:57:00,74.5,46.6,28.32,East,90,6.0,8.0,37,0.00,,,0.00,meteohub,2013-09-23 01:57:00,
2013-09-22 21:02:00,74.3,46.4,28.32,East,90,1.0,8.0,37,0.00,,,0.00,meteohub,2013-09-23 02:02:00,
2013-09-22 21:08:00,74.3,46.4,28.32,SE,135,7.0,8.0,37,0.00,,,0.00,meteohub,2013-09-23 02:08:00,
2013-09-22 21:13:00,74.1,46.2,28.32,East,90,7.0,8.0,37,0.00,,,0.00,meteohub,2013-09-23 02:13:00,
2013-09-22 21:18:00,74.1,46.2,28.32,East,90,5.0,9.0,37,0.00,,,0.00,meteohub,2013-09-23 02:18:00,
2013-09-22 21:23:00,73.6,45.7,28.32,NW,315,2.0,9.0,37,0.00,,,0.00,meteohub,2013-09-23 02:23:00,
2013-09-22 21:28:00,73.8,45.1,28.32,SE,135,2.0,8.0,36,0.00,,,0.00,meteohub,2013-09-23 02:28:00,
2013-09-22 21:33:00,73.6,45.0,28.32,SE,135,1.0,8.0,36,0.00,,,0.00,meteohub,2013-09-23 02:33:00,
2013-09-22 21:38:00,73.4,44.8,28.32,SE,135,2.0,8.0,36,0.00,,,0.00,meteohub,2013-09-23 02:38:00,
2013-09-22 21:43:00,73.0,44.4,28.33,East,90,2.0,5.0,36,0.00,,,0.00,meteohub,2013-09-23 02:43:00,
2013-09-22 21:48:00,73.0,45.1,28.33,East,90,5.0,5.0,37,0.00,,,0.00,meteohub,2013-09-23 02:48:00,
2013-09-22 21:53:00,72.9,45.1,28.32,SE,135,2.0,6.0,37,0.00,,,0.00,meteohub,2013-09-23 02:53:00,
2013-09-22 21:58:00,72.9,45.1,28.33,East,90,6.0,8.0,37,0.00,,,0.00,meteohub,2013-09-23 02:58:00,
2013-09-22 22:03:00,72.5,45.5,28.33,East,90,6.0,8.0,38,0.00,,,0.00,meteohub,2013-09-23 03:03:00,
2013-09-22 22:09:00,72.3,45.3,28.33,East,90,4.0,8.0,38,0.00,,,0.00,meteohub,2013-09-23 03:09:00,
2013-09-22 22:14:00,72.0,45.7,28.33,SE,135,6.0,9.0,39,0.00,,,0.00,meteohub,2013-09-23 03:14:00,
2013-09-22 22:19:00,71.6,45.3,28.33,SE,135,5.0,9.0,39,0.00,,,0.00,meteohub,2013-09-23 03:19:00,
2013-09-22 22:24:00,71.6,46.0,28.33,East,90,5.0,9.0,40,0.00,,,0.00,meteohub,2013-09-23 03:24:00,
2013-09-22 22:29:00,71.4,45.9,28.33,East,90,7.0,9.0,40,0.00,,,0.00,meteohub,2013-09-23 03:29:00,
2013-09-22 22:34:00,71.1,46.2,28.33,SE,135,8.0,8.0,41,0.00,,,0.00,meteohub,2013-09-23 03:34:00,
2013-09-22 22:39:00,71.1,46.8,28.34,SE,135,8.0,8.0,42,0.00,,,0.00,meteohub,2013-09-23 03:39:00,
2013-09-22 22:44:00,71.2,46.9,28.33,East,90,8.0,8.0,42,0.00,,,0.00,meteohub,2013-09-23 03:44:00,
2013-09-22 22:49:00,71.2,46.9,28.34,East,90,4.0,8.0,42,0.00,,,0.00,meteohub,2013-09-23 03:49:00,
2013-09-22 22:54:00,70.9,46.6,28.34,East,90,2.0,8.0,42,0.00,,,0.00,meteohub,2013-09-23 03:54:00,
2013-09-22 22:59:00,70.7,47.1,28.34,SE,135,7.0,8.0,43,0.00,,,0.00,meteohub,2013-09-23 03:59:00,
2013-09-22 23:01:00,71.1,47.5,28.34,South,180,9.0,9.0,43,0.00,,,0.00,meteohub,2013-09-23 04:01:00,
2013-09-22 23:06:00,70.9,47.3,28.34,ESE,113,2.0,11.0,43,0.00,,,0.00,meteohub,2013-09-23 04:06:00,
2013-09-22 23:11:00,70.7,47.1,28.34,SE,135,3.0,11.0,43,0.00,,,0.00,meteohub,2013-09-23 04:11:00,
2013-09-22 23:16:00,70.7,47.1,28.34,WNW,293,10.0,11.0,43,0.00,,,0.00,meteohub,2013-09-23 04:16:00,
2013-09-22 23:21:00,70.9,47.8,28.34,East,90,7.0,10.0,44,0.00,,,0.00,meteohub,2013-09-23 04:21:00,
2013-09-22 23:26:00,70.5,47.5,28.34,SE,135,5.0,10.0,44,0.00,,,0.00,meteohub,2013-09-23 04:26:00,
2013-09-22 23:31:00,70.2,47.8,28.33,East,90,6.0,14.0,45,0.00,,,0.00,meteohub,2013-09-23 04:31:00,
2013-09-22 23:36:00,69.8,48.0,28.34,East,90,8.0,14.0,46,0.00,,,0.00,meteohub,2013-09-23 04:36:00,
2013-09-22 23:41:00,69.3,47.7,28.33,SE,135,6.0,10.0,46,0.00,,,0.00,meteohub,2013-09-23 04:41:00,
2013-09-22 23:46:00,69.1,48.0,28.33,SE,135,11.0,11.0,47,0.00,,,0.00,meteohub,2013-09-23 04:46:00,
2013-09-22 23:51:00,68.9,48.4,28.33,East,90,11.0,11.0,48,0.00,,,0.00,meteohub,2013-09-23 04:51:00,
2013-09-22 23:56:00,68.7,48.7,28.33,East,90,7.0,11.0,49,0.00,,,0.00,meteohub,2013-09-23 04:56:00,